Location: Unspecified
(51.0000°N, 12.0000°E)
Time: 01:27:26

ISS - Pass Details

Date: 18 March 2018
Orbit: 403 x 406 km, 51.6° (Epoch: 22 March)

Event Time Altitude Azimuth Distance (km) Brightness Sun altitude
Exits shadow 05:05:28 19° 228° (SW) 1,037 -2.3 -12.4°
Maximum altitude 05:05:54 20° 217° (SW) 1,019 -2.3 -12.3°
Drops below altitude 10° 05:08:21 10° 168° (SSE) 1,458 -1.0 -12.0°
Sets 05:10:47 0° 151° (SSE) 2,313 0.2 -11.6°
